Change the Weather History Date:

Friday, February 8, 2013

  Actual Average Record
Temperature  
Mean Temperature 22 °F 26 °F  
Max Temperature 34 °F 32 °F 57 °F (1990)
Min Temperature 10 °F 20 °F -16 °F (1934)
Degree Days  
Heating Degree Days 43 39  
Month to date heating degree days 367 316  
Since 1 July heating degree days 3680 3988  
Cooling Degree Days 0 0  
Month to date cooling degree days 0 0  
Year to date cooling degree days 0 0  
Moisture  
Dew Point 19 °F    
Average Humidity 74    
Maximum Humidity 92    
Minimum Humidity 56    
Precipitation  
Precipitation 0.10 in 0.06 in 1.04 in (2001)
Month to date precipitation 1.59 0.46  
Year to date precipitation 7.07 2.49  
Snow  
Snow 1.90 in 0.70 in 5.30 in (1952)
Month to date snowfall 25.6 6.3  
Since 1 July snowfall 65.2 69.4  
Snow Depth 15.00 in    
Sea Level Pressure  
Sea Level Pressure 30.17 in    
Wind  
Wind Speed 10 mph (NNW)    
Max Wind Speed 20 mph    
Max Gust Speed 26 mph    
Visibility 6 miles    
Events Fog , Snow    
T = Trace of Precipitation, MM = Missing Value Source: NWS Daily Summary

Daily Weather History Graph

Daily Weather History Graph

Search for Another Location

Airport or City:

Trip Planner

Search our weather history database for the weather conditions in past years. The results will help you decide how hot, cold, wet, or windy it might be!

Date:

Astronomy

Feb. 08, 2013 Rise Set
Actual Time 7:51 AM EST 6:07 PM EST
Civil Twilight 7:22 AM EST 6:36 PM EST
Nautical Twilight 6:48 AM EST 7:10 PM EST
Astronomical Twilight 6:15 AM EST 7:43 PM EST
Moon 6:21 AM EST (2/8) 4:39 PM EST (2/8)
Length of Visible Light 11h 14m
Length of Day
10h 15m
Waning Crescent, 3% of the Moon is Illuminated
Feb 8
Waning Crescent
Feb 10
New
Feb 17
First Quarter
Feb 25
Full
Mar 4
Last Quarter

Hourly Weather History & Observations

Time (EST) Temp. Windchill Dew Point Humidity Pressure Visibility Wind Dir Wind Speed Gust Speed Precip Events Conditions
12:55 AM 30.0 °F 21.7 °F 26.1 °F 85% 29.93 in 1.8 mi North 9.2 mph - 0.01 in Snow Light Snow
1:55 AM 28.9 °F 20.4 °F 26.1 °F 89% 29.95 in 1.5 mi North 9.2 mph - 0.02 in Snow Light Snow
2:19 AM 28.4 °F 19.7 °F 24.8 °F 86% 29.92 in 2.0 mi North 9.2 mph - 0.01 in Snow Light Snow
2:24 AM 28.4 °F 19.7 °F 24.8 °F 86% 29.93 in 1.8 mi North 9.2 mph - 0.01 in Snow Light Snow
2:55 AM 28.9 °F 19.8 °F 25.0 °F 85% 29.96 in 1.5 mi North 10.4 mph - 0.02 in Snow Light Snow
3:15 AM 28.4 °F 19.7 °F 24.8 °F 86% 29.94 in 2.0 mi North 9.2 mph - 0.00 in Snow Light Snow
3:28 AM 28.4 °F 19.1 °F 24.8 °F 86% 29.94 in 1.8 mi North 10.4 mph - 0.00 in Snow Light Snow
3:55 AM 28.9 °F 20.4 °F 25.0 °F 85% 29.97 in 1.5 mi North 9.2 mph - 0.01 in Snow Light Snow
4:30 AM 28.4 °F 18.5 °F 24.8 °F 86% 29.96 in 1.8 mi North 11.5 mph - 0.00 in Snow Light Snow
4:38 AM 28.4 °F 19.1 °F 26.6 °F 93% 29.97 in 1.8 mi NNW 10.4 mph - 0.00 in Snow Light Snow
4:48 AM 28.4 °F 19.1 °F 26.6 °F 93% 29.98 in 2.5 mi NNW 10.4 mph - 0.00 in Snow Light Snow
4:55 AM 28.9 °F 19.8 °F 25.0 °F 85% 30.01 in 2.0 mi North 10.4 mph - 0.00 in Snow Light Snow
5:15 AM 28.4 °F 19.1 °F 24.8 °F 86% 29.99 in 1.8 mi North 10.4 mph - 0.00 in Snow Light Snow
5:25 AM 28.4 °F 18.0 °F 24.8 °F 86% 30.00 in 2.5 mi North 12.7 mph - 0.00 in Snow Light Snow
5:27 AM 28.4 °F 18.0 °F 24.8 °F 86% 30.00 in 3.0 mi North 12.7 mph - 0.00 in Snow Light Snow
5:42 AM 28.4 °F 18.0 °F 24.8 °F 86% 30.01 in 3.0 mi North 12.7 mph 21.9 mph 0.00 in Snow Light Snow
5:55 AM 28.0 °F 17.0 °F 23.0 °F 81% 30.05 in 5.0 mi North 13.8 mph - 0.00 in Snow Light Snow
6:55 AM 27.0 °F 14.7 °F 21.9 °F 81% 30.08 in 10.0 mi North 16.1 mph - 0.00 in Snow Light Snow
7:55 AM 25.0 °F 13.6 °F 19.9 °F 81% 30.12 in 10.0 mi North 12.7 mph - 0.00 in   Partly Cloudy
8:55 AM 25.0 °F 14.2 °F 19.9 °F 81% 30.17 in 10.0 mi NNW 11.5 mph - N/A   Mostly Cloudy
9:11 AM 26.6 °F 15.7 °F 19.4 °F 74% 30.15 in 10.0 mi North 12.7 mph - N/A   Mostly Cloudy
9:55 AM 26.1 °F 14.0 °F 19.0 °F 75% 30.20 in 10.0 mi North 15.0 mph - N/A   Scattered Clouds
10:55 AM 28.0 °F 18.1 °F 19.9 °F 72% 30.24 in 10.0 mi North 11.5 mph - N/A   Clear
11:55 AM 30.9 °F 22.2 °F 19.9 °F 64% 30.25 in 10.0 mi North 10.4 mph 18.4 mph N/A   Clear
12:55 PM 32.0 °F 22.5 °F 19.9 °F 61% 30.25 in 10.0 mi NNW 12.7 mph - N/A   Partly Cloudy
1:55 PM 32.0 °F 22.1 °F 19.0 °F 59% 30.25 in 10.0 mi NNW 13.8 mph - N/A   Scattered Clouds
2:55 PM 34.0 °F 25.5 °F 19.9 °F 56% 30.26 in 10.0 mi NNW 11.5 mph - N/A   Scattered Clouds
3:55 PM 30.9 °F 23.5 °F 18.0 °F 59% 30.28 in 10.0 mi North 8.1 mph - N/A   Scattered Clouds
4:55 PM 30.0 °F 20.5 °F 18.0 °F 61% 30.30 in 10.0 mi North 11.5 mph - N/A   Mostly Cloudy
5:55 PM 27.0 °F 17.3 °F 18.0 °F 69% 30.32 in 10.0 mi NNW 10.4 mph - N/A   Mostly Cloudy
6:45 PM 26.6 °F 16.8 °F 17.6 °F 69% 30.31 in 10.0 mi NNW 10.4 mph - N/A   Mostly Cloudy
6:55 PM 25.0 °F 15.5 °F 16.0 °F 69% 30.35 in 10.0 mi NNW 9.2 mph - N/A   Mostly Cloudy
7:18 PM 24.8 °F 15.3 °F 15.8 °F 69% 30.32 in 10.0 mi NNW 9.2 mph - N/A   Scattered Clouds
7:49 PM 24.8 °F 17.9 °F 15.8 °F 69% 30.33 in 10.0 mi NW 5.8 mph - N/A   Mostly Cloudy
7:55 PM 24.1 °F 17.0 °F 16.0 °F 71% 30.36 in 10.0 mi NW 5.8 mph - N/A   Mostly Cloudy
8:08 PM 21.2 °F 14.9 °F 15.8 °F 80% 30.33 in 10.0 mi NNW 4.6 mph - N/A   Scattered Clouds
8:55 PM 21.9 °F 17.2 °F 15.1 °F 75% 30.37 in 10.0 mi NNW 3.5 mph - N/A   Partly Cloudy
9:55 PM 17.1 °F - 12.0 °F 81% 30.39 in 10.0 mi Calm Calm - N/A   Clear
10:55 PM 14.0 °F 8.2 °F 10.0 °F 84% 30.40 in 9.0 mi NNW 3.5 mph - N/A   Clear
11:04 PM 12.2 °F - 8.6 °F 85% 30.37 in 1.8 mi Calm Calm - N/A   Clear
11:12 PM 12.2 °F - 8.6 °F 85% 30.37 in 0.5 mi Calm Calm - N/A Fog Light Freezing Fog
11:20 PM 12.2 °F - 8.6 °F 85% 30.37 in 2.0 mi Calm Calm - N/A   Clear
11:28 PM 12.2 °F 6.1 °F 8.6 °F 85% 30.37 in 6.0 mi North 3.5 mph - N/A   Haze
11:46 PM 12.2 °F 6.1 °F 8.6 °F 85% 30.38 in 1.8 mi NNW 3.5 mph - N/A   Clear
11:55 PM 12.9 °F - 9.0 °F 84% 30.42 in 1.0 mi Calm Calm - N/A   Clear